Temperature
13 14 14 14 14 14 14 13 13 13 13 14 13 13 14 14 15 15 15 15 15 15 14 14 14 14 14 14 14 13 13 13 13 12 12 12 12 12 12 11 11 11 11 11
13 14 14 14 14 14 14 14 13 13 13 14 14 14 14 14 14 14 14 15 14 14 14 14 14 14 14 13 13 13 13 12 12 12 12 12 11 11 11 11 11 11 10 10
12 12 13 13 14 14 14 13 13 13 14 13 12 13 13 14 14 14 14 14 14 14 14 14 14 13 13 13 13 12 12 12 12 12 11 11 11 11 11 11 10 10 10 10
10 12 13 14 14 14 14 14 13 13 13 12 13 14 14 14 14 14 14 14 14 14 14 14 13 13 13 13 12 12 12 12 12 11 11 11 11 11 10 10 10 10 10 10
10 11 12 13 13 13 13 13 13 12 12 13 13 13 13 14 15 15 14 14 14 14 14 13 13 13 12 12 12 12 11 11 11 11 11 11 10 10 10 10 10 9 9 9
9 11 12 13 14 14 14 13 13 12 12 12 12 11 12 14 14 14 14 14 14 13 13 13 13 12 12 12 11 11 11 11 11 11 10 10 10 10 10 10 9 9 9 9
9 10 11 12 13 13 13 13 14 13 13 12 12 12 14 14 14 14 14 14 13 13 13 13 12 12 12 11 11 11 11 10 10 10 10 10 10 9 9 9 9 9 9 9
9 10 11 13 12 12 13 14 14 14 14 13 14 14 14 14 14 13 13 13 13 13 12 12 12 11 11 11 11 10 10 10 10 10 10 9 9 9 9 9 9 9 8 8
10 11 12 13 13 14 15 14 15 14 14 14 13 13 13 13 13 13 13 13 12 12 12 11 11 11 11 11 10 10 10 10 9 9 9 9 9 8 8 8 8 8 8 8
9 10 12 13 14 14 15 14 15 14 14 14 13 14 13 13 13 13 12 12 12 12 11 11 11 10 10 10 10 10 9 9 9 9 9 8 8 8 8 8 8 7 7 7
9 9 11 13 14 14 14 14 14 14 14 14 14 13 13 13 12 12 12 12 11 11 11 11 10 10 10 10 9 9 9 9 8 8 8 8 8 7 7 7 7 7 7 7
10 11 11 13 14 14 14 14 14 14 14 14 13 13 13 12 12 12 12 11 11 11 11 10 10 10 10 9 9 9 9 8 8 8 8 8 7 7 7 7 7 6 6 6
12 13 13 13 13 13 13 13 13 13 13 13 13 13 12 12 12 11 11 11 11 10 10 10 10 9 9 9 9 8 8 8 8 8 7 7 7 7 7 7 6 6 6 6
12 12 12 12 13 13 13 13 13 13 13 13 12 12 12 12 11 11 11 10 10 10 9 9 9 9 9 8 8 8 8 8 7 7 7 7 7 6 6 6 6 6 6 6
12 12 12 12 12 12 12 12 12 12 12 12 12 12 11 11 11 11 10 10 9 9 9 9 9 8 8 8 8 8 7 7 7 7 7 6 6 6 6 6 6 6 6 6
11 11 11 12 12 12 12 12 12 11 11 11 11 11 11 10 10 10 9 9 9 9 8 8 8 8 8 7 7 7 7 7 6 6 6 6 6 6 5 5 5 5 5 5
11 10 11 11 11 11 11 11 11 11 11 11 10 10 10 10 9 9 9 8 8 8 8 8 7 7 7 7 7 6 6 6 6 6 5 5 5 5 5 5 5 5 5 5
11 11 11 11 10 10 10 10 10 10 10 10 10 9 9 9 9 8 8 8 7 7 7 7 7 6 6 6 6 6 6 6 5 5 5 5 5 5 4 4 4 4 4 4
10 10 10 10 10 10 10 10 10 10 9 9 9 9 9 8 8 8 7 7 7 7 7 6 6 6 6 6 6 5 5 5 5 5 4 4 4 4 4 4 4 4 4 4
10 10 9 10 10 9 9 9 9 9 9 9 8 8 8 8 7 7 7 6 6 6 6 6 6 5 5 5 5 5 5 5 4 4 4 4 4 3 3 3 3 3 3 3
9 9 9 9 9 9 9 9 8 8 8 8 8 7 7 7 7 6 6 6 6 6 6 5 5 5 5 4 4 4 4 4 4 4 3 3 3 3 3 3 3 3 2 2
8 8 8 8 8 8 8 8 8 8 8 7 7 7 7 6 6 6 6 5 5 5 5 5 5 4 4 4 4 4 4 3 3 3 3 3 3 3 2 2 2 2 2 2
8 8 8 8 8 8 7 7 7 7 7 7 7 6 6 6 6 5 5 5 5 5 4 4 4 4 4 4 4 3 3 3 3 3 2 2 2 2 2 2 2 1 1 1
7 7 7 7 7 7 7 7 7 6 6 6 6 6 6 5 5 5 5 5 4 4 4 4 4 4 3 3 3 3 3 3 2 2 2 2 2 1 1 1 1 1 1 1
7 7 7 6 6 6 6 6 6 5 5 5 5 5 5 5 5 5 4 4 4 4 4 3 3 3 3 3 3 2 2 2 2 2 2 1 1 1 1 1 0 0 0 0
6 6 6 6 6 6 5 5 5 5 5 4 4 4 4 4 4 4 4 4 3 3 3 3 3 2 2 2 2 2 2 1 1 1 1 1 1 1 0 0 0 -0 -0 -0
5 5 5 5 5 5 5 5 4 4 4 4 4 4 4 4 3 3 3 3 3 3 2 2 2 2 2 2 1 1 1 1 1 1 1 1 0 0 0 0 -0 -0 -0 -1
Wind_Speed
6 5 4 5 6 5 7 8 8 8 8 9 7 6 5 3 2 1 2 2 3 2 2 2 1 1 1 1 2 2 3 2 3 3 3 3 3 3 3 2 2 2 2 2
3 3 4 5 6 7 7 6 7 6 8 7 4 2 2 3 4 3 4 4 3 2 2 2 3 2 2 2 2 2 3 3 2 2 2 2 3 3 2 2 2 1 2 2
3 4 3 5 6 7 5 5 6 8 8 3 2 5 6 6 6 6 6 5 4 3 4 4 4 3 3 3 2 2 2 3 2 2 2 2 2 2 3 3 3 2 2 2
1 2 5 7 3 4 5 5 6 5 5 4 5 5 4 4 6 7 5 4 4 3 3 3 3 3 2 2 2 2 2 3 3 3 2 2 2 2 3 3 3 3 3 3
2 2 7 7 3 4 4 6 5 5 4 2 1 2 3 3 4 6 5 4 4 3 3 2 2 2 3 2 2 2 2 3 4 4 3 3 3 3 3 3 3 3 3 3
3 3 6 6 3 2 2 6 4 4 4 2 3 0 5 3 2 3 3 3 3 2 1 2 2 2 3 3 3 3 4 4 3 3 3 3 4 3 2 2 3 2 2 2
4 5 7 6 2 3 3 7 3 4 5 5 5 5 4 2 1 2 2 2 2 3 2 2 2 3 3 3 4 5 3 2 2 2 3 3 2 2 1 2 1 1 2 2
4 4 7 3 4 5 7 3 3 4 4 5 5 3 2 2 2 2 2 2 2 2 1 1 2 3 3 4 4 3 2 2 2 2 2 2 1 1 1 1 2 1 1 2
7 7 5 3 5 5 3 3 4 4 4 5 4 3 3 3 3 2 2 2 2 3 2 1 2 3 4 4 3 2 2 2 2 2 2 2 2 2 1 1 2 2 2 2
5 7 6 6 6 5 4 5 5 5 5 5 5 5 4 4 3 3 2 2 2 3 2 2 3 3 4 3 2 3 3 3 2 2 2 1 1 2 2 2 2 2 3 3
6 7 6 5 5 5 4 4 3 3 4 6 6 5 5 5 4 4 3 3 3 4 4 4 3 3 3 3 3 3 3 3 2 2 2 2 2 3 3 4 5 4 4 4
7 7 5 7 6 4 4 4 4 4 4 4 5 6 5 5 4 4 3 3 3 3 3 3 3 3 3 3 4 4 3 3 3 2 2 2 2 2 4 4 5 6 6 4
6 4 5 6 5 3 4 5 4 4 5 4 4 4 4 3 3 3 3 3 4 4 4 3 3 3 3 3 4 4 4 3 3 3 3 3 2 2 3 3 3 4 5 4
4 2 4 5 5 4 3 3 1 1 2 2 3 3 3 2 3 3 4 4 3 3 2 2 2 3 3 3 4 4 4 4 3 3 3 3 3 3 3 3 3 3 4 5
4 4 5 4 3 3 1 0 1 1 1 1 1 2 3 3 4 4 3 2 2 2 2 2 2 3 2 3 4 4 3 3 3 3 3 3 3 3 3 3 3 3 3 3
5 3 2 2 3 3 2 1 1 2 2 2 1 2 3 3 3 2 2 3 3 2 2 2 3 3 2 2 3 3 3 4 3 3 3 3 3 2 3 3 3 3 3 3
2 4 4 4 4 4 4 4 3 3 2 2 2 2 2 2 2 1 2 2 2 2 2 2 3 2 1 2 3 2 2 3 3 2 2 2 2 3 3 3 3 4 4 4
5 6 5 5 4 4 4 4 3 2 2 2 2 2 3 3 4 3 3 2 1 1 2 2 2 1 1 2 2 2 2 1 2 2 2 2 2 2 2 3 3 4 4 3
4 4 4 4 4 4 4 3 3 2 2 2 3 3 3 3 3 3 2 2 2 2 4 3 3 1 1 2 2 1 1 1 1 1 1 2 2 2 2 3 3 3 3 3
3 4 4 4 3 2 3 2 2 2 2 3 3 2 2 2 2 3 3 3 3 3 3 2 1 1 1 2 2 1 1 2 2 1 1 1 2 2 2 2 2 3 3 3
4 4 3 3 3 3 3 2 2 2 2 3 4 4 3 2 2 2 2 2 3 2 2 2 1 2 2 2 2 1 2 1 1 2 2 2 2 2 2 2 2 2 2 2
4 3 3 3 2 2 2 1 2 2 2 2 2 3 2 2 1 1 2 3 2 2 1 1 2 3 3 2 1 2 1 1 1 1 2 2 2 2 2 2 2 2 2 2
3 3 2 2 2 2 1 0 1 2 3 3 3 3 3 3 2 2 2 2 2 3 2 2 3 4 3 1 1 2 2 2 2 2 2 2 2 2 2 2 2 2 2 2
3 2 2 1 0 1 1 1 1 1 2 2 2 3 3 2 1 2 2 2 2 2 1 2 3 2 1 1 1 1 1 1 2 2 2 1 1 1 2 1 1 2 2 2
3 2 1 1 1 2 2 1 1 0 1 0 0 1 1 1 2 1 1 1 1 0 0 1 1 1 1 1 1 1 1 1 2 1 1 1 1 1 1 1 1 2 2 2
2 2 2 2 2 2 2 2 1 1 1 0 1 1 1 0 0 1 1 0 0 0 0 1 1 0 1 1 0 0 0 1 1 1 1 1 1 1 1 1 2 2 2 2
2 2 1 1 1 1 2 2 2 2 2 2 1 1 1 0 1 1 1 0 0 1 1 0 0 1 1 0 0 0 0 0 0 0 1 1 1 1 2 2 2 2 2 2
Wind_Direction
239 249 237 240 241 217 209 204 208 234 236 254 241 230 234 236 225 200 214 217 220 221 228 228 214 188 168 172 166 169 163 177 209 213 206 205 204 208 208 203 212 217 219 246
274 268 257 256 249 230 231 222 228 246 257 256 239 215 229 219 204 217 230 226 231 227 221 222 221 218 198 198 196 174 176 196 211 203 205 214 216 208 202 208 215 204 226 234
262 298 326 265 234 214 214 211 197 225 243 249 230 218 219 215 207 217 229 226 221 220 222 226 224 211 208 213 187 171 197 210 203 195 209 224 218 201 209 214 205 210 226 226
211 30 243 248 240 197 212 238 222 231 246 228 232 239 235 214 206 216 222 223 224 220 222 223 211 203 193 176 168 179 202 221 218 202 208 216 212 213 217 213 211 217 226 234
151 226 275 289 255 188 203 259 228 220 248 260 297 12 313 251 211 213 214 214 214 213 210 201 202 187 160 165 174 188 217 230 230 213 205 203 218 227 223 210 214 219 230 236
152 197 243 255 270 217 155 270 251 203 221 208 114 195 269 275 224 210 208 202 200 190 165 170 205 161 154 179 187 214 227 233 234 218 206 207 216 222 218 209 214 215 235 245
188 227 259 259 273 109 165 253 247 199 207 188 198 222 241 242 230 204 196 192 165 155 173 206 186 152 170 194 215 227 223 216 214 213 210 206 208 210 208 201 201 211 236 260
176 218 255 239 143 185 225 246 211 204 210 203 221 245 242 220 213 200 181 165 159 158 193 220 178 159 188 228 234 217 191 192 203 207 203 181 168 197 195 179 185 222 248 280
198 222 249 225 225 244 221 223 224 210 222 197 204 229 232 221 215 217 207 188 174 168 180 232 208 175 199 235 223 191 181 199 204 191 190 174 175 188 200 195 200 225 233 259
254 269 271 271 268 264 235 236 238 219 207 193 206 220 222 216 211 205 202 193 177 165 181 231 239 220 212 216 197 179 195 210 201 189 198 196 199 201 206 218 222 234 240 254
256 275 298 285 257 255 255 250 241 232 216 207 205 219 216 212 209 204 200 193 184 186 201 222 227 232 221 195 174 178 200 214 212 206 206 220 228 225 223 231 226 227 233 233
240 246 238 266 276 264 238 240 234 226 238 232 211 215 214 210 208 203 200 189 190 198 206 220 218 225 230 203 180 180 199 208 211 210 216 221 229 267 259 248 255 241 237 239
243 260 251 274 294 283 249 252 250 227 220 229 225 206 196 203 202 192 193 191 197 205 211 216 214 228 231 203 190 194 205 213 215 212 215 222 220 224 268 297 284 257 249 255
265 276 286 286 286 289 263 257 257 266 251 221 209 192 182 193 190 189 202 209 202 199 209 209 211 240 239 203 196 205 213 219 214 221 223 221 221 226 233 247 275 285 277 269
268 234 242 272 295 309 299 336 65 307 281 269 199 180 180 186 200 211 205 180 161 171 207 212 227 258 244 198 199 208 210 220 218 221 223 223 225 228 235 243 250 264 281 291
282 288 282 284 288 304 321 284 230 254 243 224 203 195 193 190 196 196 177 156 156 190 221 223 244 262 240 193 198 209 221 231 218 212 219 222 222 227 236 243 251 261 265 269
261 278 278 281 276 278 270 256 240 241 229 220 220 203 177 157 153 170 200 201 190 206 222 229 251 264 228 194 190 208 222 233 223 221 224 223 221 230 237 242 249 258 262 262
239 243 241 238 241 254 263 262 254 240 227 230 208 174 170 176 191 202 208 196 179 276 272 252 243 241 228 207 192 197 205 220 220 224 228 229 237 239 237 244 252 258 267 270
274 269 266 257 244 238 242 244 242 234 219 191 178 185 193 199 199 198 182 165 185 247 268 257 232 213 228 228 195 189 194 220 239 238 233 246 254 257 256 255 260 260 260 264
282 285 282 284 279 248 238 237 234 222 202 171 161 164 188 211 198 188 183 202 225 235 239 229 211 207 229 233 199 188 204 209 211 223 230 239 250 259 264 267 272 271 265 262
278 282 281 279 284 276 247 224 195 197 195 167 169 184 196 209 200 182 184 241 265 236 226 221 208 215 224 227 207 198 200 200 204 218 234 248 256 263 269 273 274 274 277 278
270 268 272 274 276 283 279 230 185 181 174 170 171 171 171 190 206 215 223 230 248 234 221 225 225 222 226 223 187 188 195 203 218 228 236 246 254 261 264 268 269 274 277 277
273 263 260 255 245 252 295 263 183 179 180 182 181 186 193 206 203 202 251 257 235 236 235 237 241 236 235 188 169 187 198 211 228 236 240 244 250 253 255 263 267 273 280 285
288 283 275 271 163 142 254 278 227 193 187 190 195 196 193 201 251 253 236 242 243 244 239 232 231 230 213 132 160 187 208 220 232 240 240 244 254 257 258 262 274 285 287 294
292 290 283 210 204 222 226 209 148 141 136 125 320 287 238 197 205 224 204 211 211 193 327 268 259 230 127 129 160 200 226 230 230 228 227 237 254 259 263 264 268 277 282 288
278 274 262 246 235 224 199 181 193 206 186 189 322 327 348 18 133 155 157 177 180 135 62 356 355 70 91 119 148 216 244 280 298 285 243 243 246 247 257 263 270 268 272 280
293 292 298 310 289 227 198 190 191 205 202 198 228 269 245 176 137 137 148 142 116 95 76 57 62 81 89 92 105 171 17 4 306 268 262 255 255 256 255 256 259 259 265 273
Height
1516 1513 1513 1513 1512 1514 1515 1517 1522 1516 1514 1506 1504 1503 1503 1503 1504 1504 1505 1506 1506 1507 1507 1508 1508 1508 1508 1509 1509 1510 1510 1511 1512 1513 1513 1514 1514 1514 1514 1514 1514 1515 1515 1515
1515 1512 1511 1511 1509 1509 1509 1509 1511 1510 1508 1500 1500 1501 1501 1501 1502 1502 1503 1503 1504 1505 1505 1506 1506 1506 1506 1507 1507 1508 1508 1509 1509 1510 1510 1511 1511 1511 1511 1511 1511 1511 1511 1511
1521 1516 1512 1513 1505 1505 1505 1503 1505 1506 1502 1498 1498 1498 1498 1498 1499 1499 1500 1501 1502 1503 1503 1504 1504 1504 1504 1505 1505 1506 1506 1506 1507 1507 1507 1507 1508 1508 1508 1508 1508 1508 1508 1508
1523 1519 1520 1506 1497 1497 1499 1498 1498 1497 1496 1495 1494 1494 1495 1495 1496 1496 1498 1499 1500 1501 1501 1502 1502 1502 1502 1503 1503 1503 1504 1504 1504 1504 1504 1504 1505 1505 1505 1505 1505 1505 1505 1505
1524 1523 1516 1503 1497 1497 1498 1497 1493 1494 1493 1493 1493 1493 1493 1493 1494 1495 1496 1497 1498 1499 1500 1500 1500 1500 1500 1500 1501 1501 1501 1501 1501 1501 1501 1501 1501 1501 1501 1502 1502 1502 1502 1502
1522 1520 1517 1501 1493 1491 1495 1496 1490 1490 1490 1491 1492 1497 1493 1491 1492 1493 1495 1496 1496 1497 1497 1498 1498 1498 1498 1498 1498 1498 1498 1499 1499 1498 1498 1498 1498 1498 1498 1498 1498 1499 1499 1499
1520 1518 1508 1495 1491 1492 1502 1497 1487 1487 1487 1489 1489 1490 1490 1490 1491 1492 1493 1494 1494 1495 1495 1496 1496 1496 1495 1495 1495 1496 1496 1496 1496 1495 1495 1495 1495 1495 1495 1495 1495 1495 1495 1495
1517 1515 1507 1490 1491 1493 1490 1485 1484 1484 1485 1486 1487 1487 1488 1488 1489 1489 1490 1491 1492 1492 1493 1493 1493 1493 1493 1492 1493 1493 1493 1492 1492 1492 1492 1492 1492 1492 1492 1491 1491 1491 1491 1491
1502 1499 1489 1486 1486 1485 1484 1483 1482 1483 1483 1484 1485 1485 1486 1486 1487 1488 1488 1488 1489 1489 1490 1490 1490 1490 1490 1490 1490 1489 1489 1489 1489 1489 1488 1488 1488 1488 1488 1488 1488 1487 1487 1487
1496 1489 1485 1484 1483 1482 1482 1481 1480 1481 1481 1482 1482 1482 1483 1484 1484 1485 1485 1486 1486 1487 1487 1487 1487 1487 1487 1487 1487 1486 1486 1486 1486 1485 1485 1485 1485 1485 1485 1484 1484 1483 1483 1482
1491 1485 1482 1480 1480 1479 1479 1478 1478 1478 1479 1479 1479 1479 1480 1480 1481 1482 1482 1483 1483 1484 1484 1484 1484 1484 1484 1484 1484 1483 1483 1483 1482 1482 1482 1482 1482 1482 1481 1481 1480 1480 1479 1479
1486 1481 1480 1478 1477 1476 1476 1475 1475 1475 1475 1476 1477 1477 1477 1477 1478 1479 1479 1480 1480 1480 1481 1481 1481 1481 1481 1481 1480 1480 1480 1479 1479 1479 1478 1478 1478 1478 1477 1477 1477 1477 1476 1476
1477 1477 1476 1475 1474 1474 1473 1473 1473 1473 1472 1473 1473 1474 1474 1474 1475 1476 1476 1477 1477 1477 1478 1477 1477 1477 1477 1477 1477 1477 1476 1475 1475 1475 1475 1475 1474 1474 1473 1474 1474 1473 1472 1472
1475 1475 1473 1472 1472 1471 1470 1470 1470 1470 1470 1470 1470 1470 1471 1471 1472 1472 1473 1473 1474 1474 1474 1474 1474 1474 1474 1474 1473 1473 1473 1472 1472 1472 1472 1471 1471 1470 1470 1469 1469 1468 1469 1468
1472 1472 1471 1470 1469 1468 1468 1467 1467 1466 1466 1467 1467 1467 1468 1468 1468 1469 1470 1470 1471 1471 1471 1471 1470 1470 1471 1470 1470 1469 1469 1469 1469 1469 1468 1468 1468 1467 1466 1466 1465 1464 1464 1464
1468 1468 1467 1466 1465 1465 1464 1464 1463 1463 1463 1463 1463 1464 1464 1465 1466 1466 1467 1467 1467 1467 1467 1467 1467 1467 1467 1466 1466 1465 1465 1465 1465 1465 1464 1464 1463 1463 1462 1461 1461 1460 1459 1459
1465 1464 1463 1463 1462 1462 1461 1461 1460 1460 1460 1460 1460 1461 1461 1461 1462 1463 1464 1464 1464 1465 1464 1464 1464 1463 1463 1463 1462 1462 1461 1461 1461 1460 1460 1459 1459 1458 1458 1457 1457 1456 1455 1455
1462 1461 1461 1460 1459 1458 1458 1458 1457 1457 1457 1457 1457 1458 1458 1458 1459 1459 1460 1460 1461 1461 1461 1461 1460 1460 1459 1459 1458 1458 1457 1457 1456 1456 1455 1455 1455 1454 1454 1453 1452 1451 1451 1450
1459 1458 1457 1457 1456 1455 1454 1454 1454 1453 1453 1453 1454 1454 1455 1455 1456 1456 1457 1456 1456 1457 1457 1457 1457 1456 1455 1455 1454 1454 1453 1453 1452 1452 1451 1451 1451 1450 1449 1449 1448 1447 1446 1445
1455 1454 1454 1453 1452 1452 1451 1450 1450 1450 1449 1449 1450 1451 1451 1452 1452 1453 1453 1453 1453 1453 1454 1453 1453 1452 1452 1451 1451 1450 1449 1449 1448 1448 1447 1447 1446 1446 1445 1444 1444 1443 1442 1441
1451 1450 1450 1449 1449 1448 1448 1447 1447 1447 1447 1447 1447 1448 1448 1449 1449 1449 1449 1449 1450 1450 1450 1450 1449 1449 1448 1448 1447 1446 1446 1445 1444 1444 1443 1443 1442 1441 1441 1440 1440 1439 1438 1437
1448 1447 1447 1446 1445 1445 1445 1445 1444 1444 1444 1444 1445 1445 1445 1446 1446 1446 1447 1447 1447 1447 1446 1446 1445 1445 1445 1444 1443 1443 1442 1441 1441 1440 1440 1439 1438 1438 1437 1436 1436 1435 1434 1434
1445 1444 1444 1443 1443 1442 1442 1442 1442 1442 1442 1442 1442 1442 1442 1443 1443 1443 1443 1443 1443 1443 1443 1442 1442 1441 1441 1440 1440 1439 1438 1438 1437 1437 1436 1436 1435 1434 1434 1433 1432 1432 1431 1430
1442 1442 1441 1440 1440 1439 1439 1439 1439 1439 1439 1439 1439 1439 1439 1439 1440 1440 1440 1440 1440 1440 1439 1439 1439 1438 1437 1437 1436 1436 1435 1434 1434 1434 1433 1432 1432 1431 1430 1430 1429 1428 1427 1427
1440 1439 1438 1437 1437 1436 1436 1436 1436 1436 1436 1436 1436 1436 1436 1437 1437 1437 1437 1437 1437 1436 1436 1436 1435 1435 1434 1434 1433 1433 1432 1431 1431 1430 1430 1429 1428 1428 1427 1426 1425 1425 1424 1423
1437 1436 1435 1435 1434 1434 1433 1433 1433 1433 1433 1433 1433 1433 1433 1434 1434 1434 1434 1434 1433 1433 1433 1432 1432 1432 1431 1431 1430 1430 1429 1428 1428 1427 1427 1426 1425 1424 1424 1423 1422 1421 1420 1419
1434 1434 1433 1432 1432 1431 1431 1430 1430 1430 1430 1430 1430 1430 1431 1431 1431 1431 1431 1431 1430 1430 1430 1430 1430 1429 1428 1428 1428 1427 1426 1425 1425 1424 1423 1423 1422 1421 1421 1420 1419 1418 1417 1415